Location: De Forest
(43.2480°N, 89.3440°W)
Time: 08:10:35
(UTC-05:00)

Envisat - Visible Passes

Search period start: 17 October 2019 00:00
Search period end: 27 October 2019 00:00
Orbit: 764 x 766 km, 98.1° (Epoch: 17 October)

Date Brightness Start Highest point End Pass type
(mag) Time Alt. Az. Time Alt. Az. Time Alt. Az.
17 Oct 6.5 06:30:30 10° ENE 06:32:32 12° E 06:34:33 10° ESE visible
17 Oct 3.7 19:22:39 10° S 19:27:38 56° W 19:32:38 10° NNW visible
18 Oct 3.0 18:45:50 10° SSE 18:50:51 68° ENE 18:55:55 10° N visible
18 Oct 6.0 20:27:31 10° SW 20:30:22 15° W 20:33:12 10° NW visible
19 Oct 4.8 19:48:44 10° SSW 19:53:15 32° W 19:57:48 10° NNW visible
20 Oct 3.3 19:11:17 10° S 19:16:21 71° WSW 19:21:26 10° NNW visible
21 Oct 3.1 18:34:42 10° SSE 18:39:38 54° ENE 18:44:35 10° N visible
21 Oct 5.7 20:15:26 10° SW 20:18:58 19° W 20:22:32 10° NW visible
22 Oct 6.1 06:43:38 10° NE 06:46:57 17° E 06:50:15 10° SE visible
22 Oct 4.4 19:37:10 10° SSW 19:41:56 40° W 19:46:43 10° NNW visible
23 Oct 3.0 19:00:00 10° SSE 19:05:04 88° WSW 19:10:11 10° NNW visible
23 Oct 6.3 20:44:00 10° W 20:44:48 10° W 20:45:37 10° WNW visible
24 Oct 3.3 18:23:38 10° SE 18:28:25 43° ENE 18:33:13 10° N visible
24 Oct 5.3 20:03:34 10° SW 20:07:36 24° W 20:11:40 10° NW visible
25 Oct 6.3 06:33:04 10° ENE 06:35:33 14° E 06:38:01 10° ESE visible
25 Oct 3.9 19:25:41 10° S 19:30:36 51° W 19:35:35 10° NNW visible
26 Oct 2.9 18:48:46 10° SSE 18:53:49 74° ENE 18:58:54 10° N visible
26 Oct 6.1 20:30:55 10° WSW 20:33:23 14° W 20:35:52 10° WNW visible
